Hourly Data Report for May 08, 2004

SHERBROOKE A
QUEBEC

45°26'00.000" N
71°41'00.000" W
241.40 m
7028124
71610
YSC

Download Data

Hourly Data (May 2004)
Hourly Data Report for May 8, 2004
TIME
LST
Temp Definition
°C
Dew Point Definition
°C
Rel Hum Definition
%
Precip. Amount Definition
mm

Wind Dir Definition
10's deg

Wind Spd Definition
km/h
Visibility Definition
km
Stn Press Definition
kPa
Hmdx Definition


Wind Chill Definition


Weather Definition


00:00 -0.6 -10.0 49   26 7 15.0 99.68   -3  
01:00 -2.4 -8.6 62   21 7 15.0 99.71   -5  
02:00 -2.3 -9.6 57   23 6 15.0 99.77   -5  
03:00 -3.9 -8.5 70   18 4 15.0 99.85   -6  
04:00 -5.4 -9.0 76   20 4 15.0 99.91   -7  
05:00 -3.9 -8.5 70     0 15.0 99.98      
06:00 0.5 -7.6 55   27 7 15.0 100.08      
07:00 2.2 -9.7 41   32 6 24.1 100.11     Mainly Clear
08:00 4.1 -9.4 37   33 7 24.1 100.09     Mainly Clear
09:00 5.0 -10.4 32   31 17 24.1 100.02     Mainly Clear
10:00 5.8 -9.4 33   24 17 24.1 100.02     Mostly Cloudy
11:00 6.6 -9.6 30   29 13 24.1 99.96     Mostly Cloudy
12:00 7.6 -9.0 30   29 22 24.1 99.89     Mostly Cloudy
13:00 8.4 -8.8 29   27 17 24.1 99.81     Mostly Cloudy
14:00 9.7 -7.6 29   30 15 24.1 99.71     Mostly Cloudy
15:00 9.6 -7.1 30   25 9 24.1 99.62     Mostly Cloudy
16:00 9.6 -6.9 31   30 13 24.1 99.56     Mostly Cloudy
17:00 9.4 -7.0 31   25 7 15.0 99.50      
18:00 8.9 -6.9 32   24 6 15.0 99.41      
19:00 7.8 -6.1 37   21 6 15.0 99.41      
20:00 3.8 -4.6 54     0 15.0 99.37      
21:00 3.9 -3.8 57   9 4 15.0 99.35      
22:00 3.1 -2.2 68   12 7 15.0 99.29      
23:00 3.3 -1.3 72     0 15.0 99.25      

Notes on Data Quality.

Legend

  • E = Estimated
  • M = Missing
  • NA = Not Available*
  • [empty] = Indicates an unobserved value
Date modified: